Regional Weather Roundup
Issued by NWS

Home | Current Version | Previous Version | Graphics & Text | Print | Product List | Glossary On
Versions: 1 2 3 4 5 6 7 8 9 10 11 12 13 14 15 16 17 18 19 20 21 22 23 24 25 26 27 28 29 30 31 32 33 34 35 36 37 38 39 40 41 42 43 44 45 46 47 48 49 50
000
ASUS45 KABQ 290810
RWRNM
WEATHER ROUNDUP FOR NEW MEXICO
NATIONAL WEATHER SERVICE ALBUQUERQUE NM
100 AM MST THU JAN 29 2015

NOTE: "FAIR" MEANS FEW OR NO CLOUDS BELOW 12,000 FEET AGL WITH NO
       SIGNIFICANT WEATHER OR OBSTRUCTIONS TO VISION.

      THIS PRODUCT IS RELEASED AS TWO VERSIONS.  ONE VERSION NEAR
      THE TOP OF THE HOUR CONTAINING PRELIMINARY DATA FROM ALBUQUERQUE
      AND OTHER STATIONS.  A FINAL VERSION WITH ADDITIONAL DATA IS
      ISSUED ABOUT 10 MINUTES AFTER THE HOUR.

NMZ501-503-504-510>518-290900-
NORTHWEST PLATEAU/NORTHCENTRAL MOUNTAINS

CITY           SKY/WX    TMP DP  RH WIND       PRES   REMARKS
FARMINGTON     CLEAR     36  27  69 NE7       30.29R WCI  30
LOS ALAMOS     CLOUDY    39  24  56 CALM      30.32R
SANTA FE       CLOUDY    37  27  67 N5        30.29R WCI  33
TAOS           CLOUDY    30  25  80 CALM      30.30F
ANGEL FIRE     FAIR      26  24  91 CALM      30.35S

$$
NMZ402-403-502-505>509-290900-
WESTCENTRAL MOUNTAINS/SOUTHWEST MOUNTAINS

CITY           SKY/WX    TMP DP  RH WIND       PRES   REMARKS
GALLUP         CLOUDY    38  29  70 NE6       30.29F WCI  33
GRANTS         CLOUDY    33  30  88 W6        30.32S WCI  28
SILVER CITY    PTCLDY    43  32  65 N12       30.23S

$$
NMZ407-409-411-412-290900-
SOUTHERN DESERTS

CITY           SKY/WX    TMP DP  RH WIND       PRES   REMARKS
LORDSBURG      FAIR      37  32  81 S3        30.19R
DEMING         PTCLDY    42  32  67 W7        30.19S
LAS CRUCES     PTCLDY    51  38  60 CALM      30.20S
ALAMOGORDO     MOCLDY    48  34  57 NE8       30.19F
T OR C         CLOUDY    49  32  52 N7        30.21S

$$
NMZ519>523-290900-
CENTRAL VALLEYS/CENTRAL HIGHLANDS

CITY           SKY/WX    TMP DP  RH WIND       PRES   REMARKS
ALBUQUERQUE    MOCLDY    45  30  55 NE8       30.28R
DOUBLE EAGLE   MOCLDY    40  28  61 NW5       30.29S
MORIARTY ARPT  FAIR      34  30  86 W3        30.31R
CLINES CORNERS CLOUDY    43  26  51 NE10      30.28S
BELEN          FAIR      40  31  69 NW10      30.26F WCI  34
SOCORRO        FAIR      44  32  63 CALM      30.25S

$$
NMZ524>526-539-540-290900-
SOUTHCENTRAL MOUNTAINS

CITY           SKY/WX    TMP DP  RH WIND       PRES   REMARKS
RUIDOSO        CLOUDY    43  28  56 W8        30.30R

$$
NMZ527>531-290900-
NORTHEAST HIGHLANDS/NORTHEAST PLAINS

CITY           SKY/WX    TMP DP  RH WIND       PRES   REMARKS
LAS VEGAS      CLOUDY    37  25  61 NE5       30.30S WCI  33
RATON          MOCLDY    35  26  69 N8        30.32R WCI  29
CLAYTON        PTCLDY    42  32  67 N14       30.28R

$$
NMZ532>537-290900-
EASTCENTRAL PLAINS

CITY           SKY/WX    TMP DP  RH WIND       PRES   REMARKS
TUCUMCARI      CLOUDY    47  34  60 NE14      30.22R
CANNON AFB     MOCLDY    38  33  81 NE7       30.18R WCI  33
CLOVIS AIRPORT MOCLDY    39  34  81 NE10      30.18S WCI  32

$$
NMZ028-029-538-290900-
SOUTHEAST PLAINS

CITY           SKY/WX    TMP DP  RH WIND       PRES   REMARKS
ROSWELL        CLOUDY    48  36  63 NW9       30.17R
ARTESIA        PTCLDY    43  39  87 N9        30.18R
CARLSBAD       CLEAR     47  37  68 N7        30.13R
HOBBS          CLEAR     39  37  93 N5        30.16R


$$


USA.gov is the U.S. government's official web portal to all federal, state and local government web resources and services.